Home   Weather   Township of Washington   Past weeks
Flag for USA

Past Weather in Township of Washington, Indiana, USA — Yesterday and Last 2 Weeks

Now
49 °F

Passing clouds.


Feels Like: 48 °F
Forecast: 49 / 40 °F
Wind: 3 mph from Southeast

Location: Indianapolis International Airport

Current Time: Mar 23, 2019 at 10:00:24 pm

Latest Report: Mar 23, 2019 at 8:54 pm


Visibility: 10 mi

Pressure: 30.26 "Hg

Humidity: 33%

Dew Point: 21 °F

Location of Township of WashingtonLocation

Past Weather in Township of Washington — Graph

°F

Township of Washington Temperature Yesterday

Maximum temperature yesterday: 50 °F (at 4:54 pm)
Minimum temperature yesterday: 34 °F (at 2:54 am)
Average temperature yesterday: 41 °F

High & Low Weather Summary for the Past Weeks

 TemperatureHumidityPressure
High71 °F (Mar 13, 3:54 pm)97% (Mar 9, 8:54 am)30.48 "Hg (Mar 9, 8:54 am)
Low25 °F (Mar 23, 5:54 am)21% (Mar 23, 5:54 pm)29.44 "Hg (Mar 14, 4:54 pm)
Average41 °F69%30.13 "Hg
* Reported Mar 8 6:54 pm — Mar 23 7:54 pm, Township of Washington. Weather by CustomWeather, © 2019

Note: Actual official high and low records may vary slightly from our data, if they occured in-between our weather recording intervals... More about our weather records

Advertising

Township of Washington Weather History for the Previous 24 Hours

Scroll right to see more
 ConditionsComfort  
Time TempWeatherWind HumidityBarometerVisibility
7:54 pm
Sat, Mar 23
50 °FBroken clouds.5 mph29%30.26 "Hg10 mi
6:54 pm52 °FBroken clouds.5 mph27%30.26 "Hg10 mi
5:54 pm53 °FPassing clouds.No wind21%30.27 "Hg10 mi
4:54 pm53 °FPassing clouds.7 mph23%30.28 "Hg10 mi
3:54 pm52 °FPassing clouds.5 mph23%30.29 "Hg10 mi
2:54 pm51 °FPassing clouds.5 mph28%30.32 "Hg10 mi
1:54 pm48 °FPassing clouds.No wind32%30.34 "Hg10 mi
12:54 pm43 °FPassing clouds.No wind40%30.36 "Hg10 mi
11:54 am40 °FPassing clouds.No wind43%30.38 "Hg10 mi
10:54 am37 °FPassing clouds.3 mph54%30.37 "Hg10 mi
9:54 am33 °FPassing clouds.6 mph63%30.35 "Hg10 mi
8:54 am30 °FSunny.3 mph72%30.34 "Hg10 mi
7:54 am25 °FSunny.3 mph78%30.30 "Hg10 mi
6:54 am25 °FClear.5 mph81%30.29 "Hg10 mi
5:54 am25 °FClear.5 mph78%30.27 "Hg10 mi
4:54 am27 °FClear.5 mph75%30.27 "Hg10 mi
3:54 am27 °FClear.3 mph75%30.27 "Hg10 mi
2:54 am27 °FClear.7 mph72%30.25 "Hg10 mi
1:54 am30 °FClear.8 mph69%30.24 "Hg10 mi
12:54 am32 °FClear.8 mph69%30.24 "Hg10 mi
11:54 pm
Fri, Mar 22
34 °FClear.12 mph67%30.23 "Hg10 mi
10:54 pm35 °FClear.9 mph72%30.23 "Hg10 mi
Weather by CustomWeather, © 2019

See weather overview